Time,TemperatureF,DewpointF,PressureIn,WindDirection,WindDirectionDegrees,WindSpeedMPH,WindSpeedGustMPH,Humidity,HourlyPrecipIn,Conditions,Clouds,dailyrainin,SolarRadiationWatts/m^2,SoftwareType,DateUTC
2013-07-23 00:00:00,87.0,67.0,-100.00,SSW,208,4.0,-999.0,52,0.00,,,0.00,1.000000,,2013-07-23 05:00:00,
2013-07-23 00:22:00,87.0,67.0,-100.00,SSW,208,4.0,-999.0,52,0.00,,,0.00,1.000000,,2013-07-23 05:22:00,
2013-07-23 00:33:00,87.0,67.0,-100.00,SSW,208,4.0,-999.0,52,0.00,,,0.00,1.000000,,2013-07-23 05:33:00,
2013-07-23 00:44:00,87.0,67.0,-100.00,SSW,208,4.0,-999.0,52,0.00,,,0.00,1.000000,,2013-07-23 05:44:00,
2013-07-23 00:52:00,87.0,67.0,-100.00,SSW,208,4.0,-999.0,52,0.00,,,0.00,1.000000,,2013-07-23 05:52:00,
2013-07-23 01:00:00,85.0,68.0,-100.00,South,181,2.0,-999.0,58,0.00,,,0.00,0.000000,,2013-07-23 06:00:00,
2013-07-23 01:22:00,85.0,68.0,-100.00,South,181,2.0,-999.0,58,0.00,,,0.00,0.000000,,2013-07-23 06:22:00,
2013-07-23 01:33:00,85.0,68.0,-100.00,South,181,2.0,-999.0,58,0.00,,,0.00,0.000000,,2013-07-23 06:33:00,
2013-07-23 01:42:00,85.0,68.0,-100.00,South,181,2.0,-999.0,58,0.00,,,0.00,0.000000,,2013-07-23 06:42:00,
2013-07-23 01:52:00,85.0,68.0,-100.00,South,181,2.0,-999.0,58,0.00,,,0.00,0.000000,,2013-07-23 06:52:00,
2013-07-23 02:00:00,84.0,67.0,-100.00,South,170,2.0,-999.0,58,0.00,,,0.00,0.000000,,2013-07-23 07:00:00,
2013-07-23 02:22:00,84.0,67.0,-100.00,South,170,2.0,-999.0,58,0.00,,,0.00,0.000000,,2013-07-23 07:22:00,
2013-07-23 02:33:00,84.0,67.0,-100.00,South,170,2.0,-999.0,58,0.00,,,0.00,0.000000,,2013-07-23 07:33:00,
2013-07-23 02:42:00,84.0,67.0,-100.00,South,170,2.0,-999.0,58,0.00,,,0.00,0.000000,,2013-07-23 07:42:00,
2013-07-23 02:52:00,84.0,67.0,-100.00,South,170,2.0,-999.0,58,0.00,,,0.00,0.000000,,2013-07-23 07:52:00,
2013-07-23 03:00:00,83.0,66.0,-100.00,SSE,150,2.0,-999.0,58,0.00,,,0.00,0.000000,,2013-07-23 08:00:00,
2013-07-23 03:22:00,83.0,66.0,-100.00,SSE,150,2.0,-999.0,58,0.00,,,0.00,0.000000,,2013-07-23 08:22:00,
2013-07-23 03:33:00,83.0,66.0,-100.00,SSE,150,2.0,-999.0,58,0.00,,,0.00,0.000000,,2013-07-23 08:33:00,
2013-07-23 03:43:00,83.0,66.0,-100.00,SSE,150,2.0,-999.0,58,0.00,,,0.00,0.000000,,2013-07-23 08:43:00,
2013-07-23 03:52:00,83.0,66.0,-100.00,SSE,150,2.0,-999.0,58,0.00,,,0.00,0.000000,,2013-07-23 08:52:00,
2013-07-23 04:00:00,80.0,67.0,-100.00,SE,136,2.0,-999.0,64,0.00,,,0.00,0.000000,,2013-07-23 09:00:00,
2013-07-23 04:22:00,80.0,67.0,-100.00,SE,136,2.0,-999.0,64,0.00,,,0.00,0.000000,,2013-07-23 09:22:00,
2013-07-23 04:33:00,80.0,67.0,-100.00,SE,136,2.0,-999.0,64,0.00,,,0.00,0.000000,,2013-07-23 09:33:00,
2013-07-23 04:43:00,80.0,67.0,-100.00,SE,136,2.0,-999.0,64,0.00,,,0.00,0.000000,,2013-07-23 09:43:00,
2013-07-23 04:53:00,80.0,67.0,-100.00,SE,136,2.0,-999.0,64,0.00,,,0.00,0.000000,,2013-07-23 09:53:00,
2013-07-23 05:00:00,82.0,65.0,-100.00,South,186,2.0,-999.0,57,0.00,,,0.00,0.000000,,2013-07-23 10:00:00,
2013-07-23 05:22:00,82.0,65.0,-100.00,South,186,2.0,-999.0,57,0.00,,,0.00,0.000000,,2013-07-23 10:22:00,
2013-07-23 05:32:00,82.0,65.0,-100.00,South,186,2.0,-999.0,57,0.00,,,0.00,0.000000,,2013-07-23 10:32:00,
2013-07-23 05:44:00,82.0,65.0,-100.00,South,186,2.0,-999.0,57,0.00,,,0.00,0.000000,,2013-07-23 10:44:00,
2013-07-23 05:52:00,82.0,65.0,-100.00,South,186,2.0,-999.0,57,0.00,,,0.00,0.000000,,2013-07-23 10:52:00,
2013-07-23 06:00:00,79.0,67.0,-100.00,SSE,151,1.0,-999.0,65,0.00,,,0.00,0.000000,,2013-07-23 11:00:00,
2013-07-23 06:22:00,79.0,67.0,-100.00,SSE,151,1.0,-999.0,65,0.00,,,0.00,0.000000,,2013-07-23 11:22:00,
2013-07-23 06:32:00,79.0,67.0,-100.00,SSE,151,1.0,-999.0,65,0.00,,,0.00,0.000000,,2013-07-23 11:32:00,
2013-07-23 06:43:00,79.0,67.0,-100.00,SSE,151,1.0,-999.0,65,0.00,,,0.00,0.000000,,2013-07-23 11:43:00,
2013-07-23 06:52:00,79.0,67.0,-100.00,SSE,151,1.0,-999.0,65,0.00,,,0.00,0.000000,,2013-07-23 11:52:00,
2013-07-23 07:00:00,78.0,66.0,-100.00,SE,132,1.0,-999.0,67,0.00,,,0.00,2.000000,,2013-07-23 12:00:00,
2013-07-23 07:22:00,78.0,66.0,-100.00,SE,132,1.0,-999.0,67,0.00,,,0.00,2.000000,,2013-07-23 12:22:00,
2013-07-23 07:33:00,78.0,66.0,-100.00,SE,132,1.0,-999.0,67,0.00,,,0.00,2.000000,,2013-07-23 12:33:00,
2013-07-23 07:43:00,78.0,66.0,-100.00,SE,132,1.0,-999.0,67,0.00,,,0.00,2.000000,,2013-07-23 12:43:00,
2013-07-23 08:00:00,78.0,68.0,-100.00,ESE,116,1.0,-999.0,70,0.00,,,0.00,99.000000,,2013-07-23 13:00:00,
2013-07-23 08:22:00,78.0,68.0,-100.00,ESE,116,1.0,-999.0,70,0.00,,,0.00,99.000000,,2013-07-23 13:22:00,
2013-07-23 08:32:00,78.0,68.0,-100.00,ESE,116,1.0,-999.0,70,0.00,,,0.00,99.000000,,2013-07-23 13:32:00,
2013-07-23 08:43:00,78.0,68.0,-100.00,ESE,116,1.0,-999.0,70,0.00,,,0.00,99.000000,,2013-07-23 13:43:00,
2013-07-23 08:52:00,78.0,68.0,-100.00,ESE,116,1.0,-999.0,70,0.00,,,0.00,99.000000,,2013-07-23 13:52:00,
2013-07-23 09:00:00,84.0,67.0,-100.00,SSW,210,2.0,-999.0,57,0.00,,,0.00,280.000000,,2013-07-23 14:00:00,
2013-07-23 09:22:00,84.0,67.0,-100.00,SSW,210,2.0,-999.0,57,0.00,,,0.00,280.000000,,2013-07-23 14:22:00,
2013-07-23 09:32:00,84.0,67.0,-100.00,SSW,210,2.0,-999.0,57,0.00,,,0.00,280.000000,,2013-07-23 14:32:00,
2013-07-23 09:44:00,84.0,67.0,-100.00,SSW,210,2.0,-999.0,57,0.00,,,0.00,280.000000,,2013-07-23 14:44:00,
2013-07-23 09:53:00,84.0,67.0,-100.00,SSW,210,2.0,-999.0,57,0.00,,,0.00,280.000000,,2013-07-23 14:53:00,
2013-07-23 10:00:00,88.0,67.0,-100.00,SW,233,1.0,-999.0,51,0.00,,,0.00,477.000000,,2013-07-23 15:00:00,
2013-07-23 10:24:00,88.0,67.0,-100.00,SW,233,1.0,-999.0,51,0.00,,,0.00,477.000000,,2013-07-23 15:24:00,
2013-07-23 10:32:00,88.0,67.0,-100.00,SW,233,1.0,-999.0,51,0.00,,,0.00,477.000000,,2013-07-23 15:32:00,
2013-07-23 10:43:00,88.0,67.0,-100.00,SW,233,1.0,-999.0,51,0.00,,,0.00,477.000000,,2013-07-23 15:43:00,
2013-07-23 10:52:00,88.0,67.0,-100.00,SW,233,1.0,-999.0,51,0.00,,,0.00,477.000000,,2013-07-23 15:52:00,
2013-07-23 11:00:00,90.0,67.0,-100.00,SSW,206,3.0,-999.0,47,0.00,,,0.00,668.000000,,2013-07-23 16:00:00,
2013-07-23 11:22:00,90.0,67.0,-100.00,SSW,206,3.0,-999.0,47,0.00,,,0.00,668.000000,,2013-07-23 16:22:00,
2013-07-23 11:33:00,90.0,67.0,-100.00,SSW,206,3.0,-999.0,47,0.00,,,0.00,668.000000,,2013-07-23 16:33:00,
2013-07-23 11:43:00,90.0,67.0,-100.00,SSW,206,3.0,-999.0,47,0.00,,,0.00,668.000000,,2013-07-23 16:43:00,
2013-07-23 11:52:00,90.0,67.0,-100.00,SSW,206,3.0,-999.0,47,0.00,,,0.00,668.000000,,2013-07-23 16:52:00,
2013-07-23 12:00:00,93.0,67.0,-100.00,SW,223,3.0,-999.0,42,0.00,,,0.00,816.000000,,2013-07-23 17:00:00,
2013-07-23 12:22:00,93.0,67.0,-100.00,SW,223,3.0,-999.0,42,0.00,,,0.00,816.000000,,2013-07-23 17:22:00,
2013-07-23 12:32:00,93.0,67.0,-100.00,SW,223,3.0,-999.0,42,0.00,,,0.00,816.000000,,2013-07-23 17:32:00,
2013-07-23 12:42:00,93.0,67.0,-100.00,SW,223,3.0,-999.0,42,0.00,,,0.00,816.000000,,2013-07-23 17:42:00,
2013-07-23 12:56:00,93.0,67.0,-100.00,SW,223,3.0,-999.0,42,0.00,,,0.00,816.000000,,2013-07-23 17:56:00,
2013-07-23 13:00:00,96.0,66.0,-100.00,WNW,288,5.0,-999.0,38,0.00,,,0.00,916.000000,,2013-07-23 18:00:00,
2013-07-23 13:26:00,96.0,66.0,-100.00,WNW,288,5.0,-999.0,38,0.00,,,0.00,916.000000,,2013-07-23 18:26:00,
2013-07-23 13:34:00,96.0,66.0,-100.00,WNW,288,5.0,-999.0,38,0.00,,,0.00,916.000000,,2013-07-23 18:34:00,
2013-07-23 13:49:00,96.0,66.0,-100.00,WNW,288,5.0,-999.0,38,0.00,,,0.00,916.000000,,2013-07-23 18:49:00,
2013-07-23 13:56:00,96.0,66.0,-100.00,WNW,288,5.0,-999.0,38,0.00,,,0.00,916.000000,,2013-07-23 18:56:00,
2013-07-23 14:48:00,97.0,64.0,-100.00,West,267,3.0,-999.0,34,0.00,,,0.00,918.000000,,2013-07-23 19:48:00,
2013-07-23 14:55:00,97.0,64.0,-100.00,West,267,3.0,-999.0,34,0.00,,,0.00,918.000000,,2013-07-23 19:55:00,
2013-07-23 15:00:00,98.0,65.0,-100.00,SW,224,2.0,-999.0,34,0.00,,,0.00,561.000000,,2013-07-23 20:00:00,
2013-07-23 15:23:00,98.0,65.0,-100.00,SW,224,2.0,-999.0,34,0.00,,,0.00,561.000000,,2013-07-23 20:23:00,
2013-07-23 15:34:00,98.0,65.0,-100.00,SW,224,2.0,-999.0,34,0.00,,,0.00,561.000000,,2013-07-23 20:34:00,
2013-07-23 15:47:00,98.0,65.0,-100.00,SW,224,2.0,-999.0,34,0.00,,,0.00,561.000000,,2013-07-23 20:47:00,
2013-07-23 15:59:00,98.0,65.0,-100.00,SW,224,2.0,-999.0,34,0.00,,,0.00,561.000000,,2013-07-23 20:59:00,
2013-07-23 17:00:00,99.0,63.0,-100.00,SSW,198,3.0,-999.0,31,0.00,,,0.00,779.000000,,2013-07-23 22:00:00,
2013-07-23 17:34:00,99.0,63.0,-100.00,SSW,198,3.0,-999.0,31,0.00,,,0.00,779.000000,,2013-07-23 22:34:00,
2013-07-23 17:47:00,99.0,63.0,-100.00,SSW,198,3.0,-999.0,31,0.00,,,0.00,779.000000,,2013-07-23 22:47:00,
2013-07-23 17:59:00,99.0,63.0,-100.00,SSW,198,3.0,-999.0,31,0.00,,,0.00,779.000000,,2013-07-23 22:59:00,
2013-07-23 18:00:00,98.0,65.0,-100.00,SW,219,2.0,-999.0,34,0.00,,,0.00,529.000000,,2013-07-23 23:00:00,
2013-07-23 18:24:00,98.0,65.0,-100.00,SW,219,2.0,-999.0,34,0.00,,,0.00,529.000000,,2013-07-23 23:24:00,
2013-07-23 18:35:00,98.0,65.0,-100.00,SW,219,2.0,-999.0,34,0.00,,,0.00,529.000000,,2013-07-23 23:35:00,
2013-07-23 18:46:00,98.0,65.0,-100.00,SW,219,2.0,-999.0,34,0.00,,,0.00,529.000000,,2013-07-23 23:46:00,
2013-07-23 18:58:00,98.0,65.0,-100.00,SW,219,2.0,-999.0,34,0.00,,,0.00,529.000000,,2013-07-23 23:58:00,
2013-07-23 19:00:00,96.0,65.0,-100.00,SSW,203,3.0,-999.0,36,0.00,,,0.00,328.000000,,2013-07-24 00:00:00,
2013-07-23 19:26:00,96.0,65.0,-100.00,SSW,203,3.0,-999.0,36,0.00,,,0.00,328.000000,,2013-07-24 00:26:00,
2013-07-23 19:34:00,96.0,65.0,-100.00,SSW,203,3.0,-999.0,36,0.00,,,0.00,328.000000,,2013-07-24 00:34:00,
2013-07-23 19:50:00,96.0,65.0,-100.00,SSW,203,3.0,-999.0,36,0.00,,,0.00,328.000000,,2013-07-24 00:50:00,
2013-07-23 19:58:00,96.0,65.0,-100.00,SSW,203,3.0,-999.0,36,0.00,,,0.00,328.000000,,2013-07-24 00:58:00,
2013-07-23 20:00:00,95.0,65.0,-100.00,SSW,196,4.0,-999.0,38,0.00,,,0.00,206.000000,,2013-07-24 01:00:00,
2013-07-23 20:24:00,95.0,65.0,-100.00,SSW,196,4.0,-999.0,38,0.00,,,0.00,206.000000,,2013-07-24 01:24:00,
2013-07-23 20:33:00,95.0,65.0,-100.00,SSW,196,4.0,-999.0,38,0.00,,,0.00,206.000000,,2013-07-24 01:33:00,
2013-07-23 21:00:00,92.0,69.0,-100.00,South,187,2.0,-999.0,47,0.00,,,0.00,25.000000,,2013-07-24 02:00:00,
2013-07-23 21:26:00,92.0,69.0,-100.00,South,187,2.0,-999.0,47,0.00,,,0.00,25.000000,,2013-07-24 02:26:00,
2013-07-23 21:37:00,92.0,69.0,-100.00,South,187,2.0,-999.0,47,0.00,,,0.00,25.000000,,2013-07-24 02:37:00,
2013-07-23 21:48:00,92.0,69.0,-100.00,South,187,2.0,-999.0,47,0.00,,,0.00,25.000000,,2013-07-24 02:48:00,
2013-07-23 21:56:00,92.0,69.0,-100.00,South,187,2.0,-999.0,47,0.00,,,0.00,25.000000,,2013-07-24 02:56:00,
2013-07-23 22:00:00,87.0,70.0,-100.00,SSE,154,1.0,-999.0,57,0.00,,,0.00,0.000000,,2013-07-24 03:00:00,
2013-07-23 22:23:00,87.0,70.0,-100.00,SSE,154,1.0,-999.0,57,0.00,,,0.00,0.000000,,2013-07-24 03:23:00,
2013-07-23 22:37:00,87.0,70.0,-100.00,SSE,154,1.0,-999.0,57,0.00,,,0.00,0.000000,,2013-07-24 03:37:00,
2013-07-23 22:46:00,87.0,70.0,-100.00,SSE,154,1.0,-999.0,57,0.00,,,0.00,0.000000,,2013-07-24 03:46:00,
2013-07-23 22:56:00,87.0,70.0,-100.00,SSE,154,1.0,-999.0,57,0.00,,,0.00,0.000000,,2013-07-24 03:56:00,
2013-07-23 23:00:00,89.0,69.0,-100.00,SW,216,1.0,-999.0,52,0.00,,,0.00,0.000000,,2013-07-24 04:00:00,
2013-07-23 23:22:00,89.0,69.0,-100.00,SW,216,1.0,-999.0,52,0.00,,,0.00,0.000000,,2013-07-24 04:22:00,
2013-07-23 23:32:00,89.0,69.0,-100.00,SW,216,1.0,-999.0,52,0.00,,,0.00,0.000000,,2013-07-24 04:32:00,
2013-07-23 23:43:00,89.0,69.0,-100.00,SW,216,1.0,-999.0,52,0.00,,,0.00,0.000000,,2013-07-24 04:43:00,
2013-07-23 23:53:00,89.0,69.0,-100.00,SW,216,1.0,-999.0,52,0.00,,,0.00,0.000000,,2013-07-24 04:53:00,